When you browse on this site, cookies collect data to enhance your experience and personalize the content and advertising you see.
Visit our Privacy Policy to learn more. By continuing to use the site, you agree to this use of cookies and data.
  • In Deutschland
  • Länderverzeichnis
  • Für 7 Tage
  • Wassertemperatur
  • Satellitenkarten
  • Wetterkarte
  • Widgets
  • user-avatar
    Anmelden

    Stündliche Wetter Retschytsa

    Heute, 16 November, Freitag

    Zeit Temperatur Niederschläge Wind Luftdruck Luftfeuchtigkeit
    00:00 -4°C° 0 mm 2 m/S 766 mmHg 89%
    01:00 -4°C° 0 mm 2 m/S 766 mmHg 88%
    02:00 -5°C° 0 mm 2 m/S 767 mmHg 85%
    03:00 -5°C° 0 mm 2 m/S 767 mmHg 84%
    04:00 -5°C° 0 mm 2 m/S 767 mmHg 82%
    05:00 -5°C° 0 mm 2 m/S 767 mmHg 81%
    06:00 -5°C° 0 mm 2 m/S 768 mmHg 79%
    07:00 -6°C° 0 mm 3 m/S 768 mmHg 77%
    08:00 -6°C° 0 mm 3 m/S 768 mmHg 75%
    09:00 -5°C° 0 mm 3 m/S 768 mmHg 70%
    10:00 -4°C° 0 mm 3 m/S 768 mmHg 65%
    11:00 -1°C° 0 mm 3 m/S 769 mmHg 60%
    12:00 -1°C° 0 mm 3 m/S 769 mmHg 60%
    13:00 0°C° 0 mm 3 m/S 769 mmHg 61%
    14:00 0°C° 0 mm 3 m/S 769 mmHg 63%
    15:00 -1°C° 0 mm 3 m/S 769 mmHg 68%
    16:00 -2°C° 0 mm 3 m/S 769 mmHg 72%
    17:00 -4°C° 0 mm 3 m/S 769 mmHg 76%
    18:00 -5°C° 0 mm 3 m/S 769 mmHg 76%
    19:00 -5°C° 0 mm 3 m/S 769 mmHg 75%
    20:00 -5°C° 0 mm 3 m/S 769 mmHg 74%
    21:00 -6°C° 0 mm 3 m/S 769 mmHg 72%
    22:00 -6°C° 0 mm 3 m/S 770 mmHg 70%
    23:00 -6°C° 0 mm 3 m/S 770 mmHg 68%

    Morgen, 17 November, Samstag

    Zeit Temperatur Niederschläge Wind Luftdruck Luftfeuchtigkeit
    00:00 -6°C° 0 mm 3 m/S 770 mmHg 67%
    01:00 -6°C° 0 mm 3 m/S 770 mmHg 66%
    02:00 -6°C° 0 mm 2 m/S 770 mmHg 65%
    03:00 -6°C° 0 mm 2 m/S 770 mmHg 64%
    04:00 -6°C° 0 mm 2 m/S 769 mmHg 63%
    05:00 -6°C° 0 mm 2 m/S 769 mmHg 62%
    06:00 -6°C° 0 mm 2 m/S 769 mmHg 61%
    07:00 -6°C° 0 mm 2 m/S 769 mmHg 60%
    08:00 -6°C° 0 mm 2 m/S 769 mmHg 59%
    09:00 -4°C° 0 mm 2 m/S 769 mmHg 56%
    10:00 -3°C° 0 mm 2 m/S 769 mmHg 52%
    11:00 -1°C° 0 mm 2 m/S 769 mmHg 49%
    12:00 -1°C° 0 mm 2 m/S 768 mmHg 51%
    13:00 +1°C° 0 mm 2 m/S 768 mmHg 52%
    14:00 +1°C° 0 mm 2 m/S 767 mmHg 54%
    15:00 -1°C° 0 mm 2 m/S 767 mmHg 57%
    16:00 -1°C° 0 mm 1 m/S 767 mmHg 59%
    17:00 -2°C° 0 mm 1 m/S 766 mmHg 61%
    18:00 -2°C° 0 mm 1 m/S 766 mmHg 61%
    19:00 -3°C° 0 mm 1 m/S 765 mmHg 61%
    20:00 -3°C° 0 mm 1 m/S 765 mmHg 60%
    21:00 -3°C° 0 mm 1 m/S 765 mmHg 59%
    22:00 -3°C° 0 mm 1 m/S 764 mmHg 59%
    23:00 -3°C° 0 mm 1 m/S 764 mmHg 58%

    übermorgen, 18 November, Sonntag

    Zeit Temperatur Niederschläge Wind Luftdruck Luftfeuchtigkeit
    00:00 -3°C° 0 mm 1 m/S 763 mmHg 58%
    01:00 -5°C° 0 mm 2 m/S 762 mmHg 58%
    02:00 -5°C° 0 mm 2 m/S 762 mmHg 58%
    03:00 -5°C° 0 mm 2 m/S 761 mmHg 58%
    04:00 -5°C° 0 mm 3 m/S 760 mmHg 58%
    05:00 -5°C° 0 mm 3 m/S 759 mmHg 58%
    06:00 -5°C° 0 mm 3 m/S 758 mmHg 59%
    07:00 -4°C° 0 mm 3 m/S 758 mmHg 61%
    08:00 -4°C° 0 mm 3 m/S 757 mmHg 62%
    09:00 -2°C° 0.1 mm 3 m/S 757 mmHg 68%
    10:00 -2°C° 0.1 mm 3 m/S 756 mmHg 75%
    11:00 -1°C° 0.1 mm 3 m/S 756 mmHg 81%
    12:00 -1°C° 0.1 mm 3 m/S 755 mmHg 84%
    13:00 -1°C° 0.1 mm 2 m/S 755 mmHg 86%
    14:00 +1°C° 0.1 mm 2 m/S 754 mmHg 88%
    15:00 -1°C° 0 mm 2 m/S 754 mmHg 90%
    16:00 -1°C° 0 mm 2 m/S 754 mmHg 93%
    17:00 -2°C° 0 mm 2 m/S 753 mmHg 95%
    18:00 -2°C° 0 mm 2 m/S 753 mmHg 96%
    19:00 0°C° 0 mm 1 m/S 753 mmHg 96%
    20:00 0°C° 0 mm 1 m/S 753 mmHg 96%
    21:00 0°C° 0 mm 1 m/S 753 mmHg 96%
    22:00 +1°C° 0 mm 1 m/S 753 mmHg 97%
    23:00 +1°C° 0 mm 1 m/S 753 mmHg 97%

    19 November, Montag

    Zeit Temperatur Niederschläge Wind Luftdruck Luftfeuchtigkeit
    00:00 +1°C° 0.1 mm 1 m/S 753 mmHg 97%
    01:00 +1°C° 0.1 mm 1 m/S 753 mmHg 97%
    02:00 +1°C° 0.1 mm 1 m/S 753 mmHg 97%
    03:00 0°C° 0 mm 1 m/S 753 mmHg 97%
    04:00 0°C° 0 mm 1 m/S 753 mmHg 97%
    05:00 0°C° 0 mm 1 m/S 753 mmHg 97%
    06:00 0°C° 0 mm 1 m/S 753 mmHg 96%
    07:00 0°C° 0 mm 1 m/S 754 mmHg 96%
    08:00 -2°C° 0 mm 2 m/S 754 mmHg 96%
    09:00 -1°C° 0 mm 2 m/S 754 mmHg 94%
    10:00 -1°C° 0 mm 2 m/S 755 mmHg 92%
    11:00 +1°C° 0 mm 2 m/S 755 mmHg 90%
    12:00 +1°C° 0 mm 2 m/S 755 mmHg 90%
    13:00 +1°C° 0 mm 2 m/S 755 mmHg 89%
    14:00 +1°C° 0 mm 2 m/S 755 mmHg 89%
    15:00 +1°C° 0 mm 2 m/S 755 mmHg 90%
    16:00 -1°C° 0 mm 2 m/S 756 mmHg 92%
    17:00 -1°C° 0 mm 2 m/S 756 mmHg 93%
    18:00 -2°C° 0.1 mm 2 m/S 756 mmHg 93%
    19:00 -2°C° 0.1 mm 2 m/S 756 mmHg 93%
    20:00 -2°C° 0.1 mm 2 m/S 756 mmHg 94%
    21:00 -3°C° 0 mm 2 m/S 756 mmHg 92%
    22:00 -3°C° 0 mm 2 m/S 756 mmHg 91%
    23:00 -4°C° 0 mm 2 m/S 757 mmHg 89%

    20 November, Dienstag

    Zeit Temperatur Niederschläge Wind Luftdruck Luftfeuchtigkeit
    00:00 -4°C° 0 mm 2 m/S 757 mmHg 87%
    01:00 -5°C° 0 mm 2 m/S 757 mmHg 85%
    02:00 -5°C° 0 mm 2 m/S 757 mmHg 83%
    03:00 -5°C° 0 mm 2 m/S 757 mmHg 83%
    04:00 -5°C° 0 mm 2 m/S 757 mmHg 82%
    05:00 -5°C° 0 mm 2 m/S 756 mmHg 81%
    06:00 -5°C° 0 mm 2 m/S 756 mmHg 82%
    07:00 -5°C° 0 mm 2 m/S 756 mmHg 82%
    08:00 -5°C° 0 mm 2 m/S 756 mmHg 83%
    09:00 -4°C° 0 mm 2 m/S 756 mmHg 83%
    10:00 -3°C° 0 mm 2 m/S 756 mmHg 82%
    11:00 -2°C° 0 mm 2 m/S 756 mmHg 82%
    12:00 -1°C° 0 mm 2 m/S 756 mmHg 83%
    13:00 -1°C° 0 mm 2 m/S 756 mmHg 85%
    14:00 -1°C° 0 mm 2 m/S 755 mmHg 86%
    15:00 -1°C° 0 mm 2 m/S 755 mmHg 88%
    16:00 -1°C° 0 mm 2 m/S 755 mmHg 90%
    17:00 -2°C° 0 mm 2 m/S 755 mmHg 92%
    18:00 -1°C° 0 mm 2 m/S 755 mmHg 92%
    19:00 -1°C° 0 mm 2 m/S 755 mmHg 92%
    20:00 -1°C° 0 mm 2 m/S 755 mmHg 92%
    21:00 -1°C° 0 mm 2 m/S 754 mmHg 93%
    22:00 -1°C° 0 mm 2 m/S 754 mmHg 93%
    23:00 -1°C° 0 mm 2 m/S 754 mmHg 93%

    21 November, Mittwoch

    Zeit Temperatur Niederschläge Wind Luftdruck Luftfeuchtigkeit
    00:00 -1°C° 0 mm 3 m/S 754 mmHg 93%
    01:00 -1°C° 0 mm 3 m/S 754 mmHg 93%
    02:00 -1°C° 0 mm 3 m/S 754 mmHg 93%
    03:00 -2°C° 0 mm 4 m/S 753 mmHg 93%
    04:00 -2°C° 0 mm 4 m/S 753 mmHg 93%
    05:00 -2°C° 0 mm 4 m/S 753 mmHg 93%
    06:00 -2°C° 0 mm 5 m/S 752 mmHg 92%
    07:00 -2°C° 0 mm 5 m/S 752 mmHg 92%
    08:00 -1°C° 0 mm 5 m/S 752 mmHg 92%
    09:00 -1°C° 0.3 mm 5 m/S 752 mmHg 91%
    10:00 -1°C° 0.3 mm 5 m/S 752 mmHg 90%
    11:00 -2°C° 0.3 mm 6 m/S 752 mmHg 89%
    12:00 -2°C° 0.6 mm 6 m/S 751 mmHg 89%
    13:00 -2°C° 0.6 mm 6 m/S 751 mmHg 90%
    14:00 -2°C° 0.6 mm 6 m/S 751 mmHg 90%
    15:00 -2°C° 0.4 mm 6 m/S 751 mmHg 90%
    16:00 -2°C° 0.4 mm 6 m/S 751 mmHg 90%
    17:00 -2°C° 0.4 mm 6 m/S 751 mmHg 91%
    18:00 -2°C° 0.3 mm 6 m/S 751 mmHg 91%
    19:00 -2°C° 0.3 mm 6 m/S 751 mmHg 91%
    20:00 -2°C° 0.3 mm 6 m/S 751 mmHg 91%
    21:00 -2°C° 0.3 mm 6 m/S 751 mmHg 91%
    22:00 -2°C° 0.3 mm 6 m/S 751 mmHg 91%
    23:00 -2°C° 0.3 mm 6 m/S 751 mmHg 91%
    Mehr zeigen